EN

Hourly Weather Altafulla

Today, 23 January, Saturday

Time Temperature Precipitation Wind Pressure Humidity
00:00 +7°C° 0 mm 10 mps 754 mmHg 63%
01:00 +7°C° 0 mm 10 mps 754 mmHg 64%
02:00 +7°C° 0 mm 11 mps 754 mmHg 64%
03:00 +7°C° 0 mm 11 mps 754 mmHg 65%
04:00 +7°C° 0 mm 11 mps 753 mmHg 65%
05:00 +7°C° 0 mm 11 mps 753 mmHg 65%
06:00 +6°C° 0 mm 11 mps 753 mmHg 65%
07:00 +7°C° 0 mm 11 mps 753 mmHg 63%
08:00 +8°C° 0 mm 12 mps 753 mmHg 61%
09:00 +8°C° 0 mm 12 mps 753 mmHg 59%
10:00 +8°C° 0 mm 12 mps 753 mmHg 60%
11:00 +9°C° 0 mm 11 mps 753 mmHg 61%
12:00 +12°C° 0 mm 10 mps 753 mmHg 54%
13:00 +12°C° 0 mm 10 mps 753 mmHg 54%
14:00 +12°C° 0 mm 9 mps 752 mmHg 55%
15:00 +12°C° 0 mm 9 mps 752 mmHg 55%
16:00 +12°C° 0 mm 7 mps 751 mmHg 59%
17:00 +11°C° 0 mm 6 mps 751 mmHg 62%
18:00 +10°C° 0 mm 5 mps 750 mmHg 66%
19:00 +10°C° 0.3 mm 5 mps 750 mmHg 71%
20:00 +10°C° 0.3 mm 5 mps 749 mmHg 75%
21:00 +10°C° 0.3 mm 5 mps 749 mmHg 80%
22:00 +10°C° 0.6 mm 3 mps 749 mmHg 86%
23:00 +10°C° 0.6 mm 4 mps 749 mmHg 89%

Tomorrow, 24 January, Sunday

Time Temperature Precipitation Wind Pressure Humidity
00:00 +10°C° 0.6 mm 4 mps 748 mmHg 92%
01:00 +9°C° 0.1 mm 6 mps 747 mmHg 88%
02:00 +9°C° 0.1 mm 7 mps 747 mmHg 85%
03:00 +8°C° 0.1 mm 9 mps 747 mmHg 82%
04:00 +8°C° 0 mm 10 mps 747 mmHg 80%
05:00 +8°C° 0 mm 12 mps 748 mmHg 78%
06:00 +8°C° 0 mm 13 mps 749 mmHg 76%
07:00 +8°C° 0 mm 11 mps 750 mmHg 74%
08:00 +8°C° 0 mm 9 mps 751 mmHg 72%
09:00 +9°C° 0 mm 7 mps 752 mmHg 69%
10:00 +9°C° 0 mm 7 mps 752 mmHg 63%
11:00 +10°C° 0 mm 7 mps 753 mmHg 57%
12:00 +11°C° 0 mm 8 mps 753 mmHg 51%
13:00 +11°C° 0 mm 9 mps 753 mmHg 50%
14:00 +12°C° 0 mm 9 mps 753 mmHg 50%
15:00 +12°C° 0 mm 10 mps 754 mmHg 49%
16:00 +11°C° 0 mm 10 mps 754 mmHg 51%
17:00 +10°C° 0 mm 9 mps 754 mmHg 54%
18:00 +8°C° 0 mm 9 mps 755 mmHg 57%
19:00 +8°C° 0 mm 9 mps 755 mmHg 58%
20:00 +8°C° 0 mm 10 mps 755 mmHg 59%
21:00 +7°C° 0 mm 10 mps 756 mmHg 61%
22:00 +7°C° 0 mm 10 mps 756 mmHg 63%
23:00 +7°C° 0 mm 9 mps 756 mmHg 66%

Day after tomorrow, 25 January, Monday

Time Temperature Precipitation Wind Pressure Humidity
00:00 +6°C° 0 mm 9 mps 757 mmHg 68%
01:00 +6°C° 0 mm 8 mps 757 mmHg 70%
02:00 +5°C° 0 mm 7 mps 757 mmHg 73%
03:00 +5°C° 0 mm 7 mps 758 mmHg 75%
04:00 +5°C° 0 mm 6 mps 758 mmHg 77%
05:00 +5°C° 0 mm 6 mps 758 mmHg 78%
06:00 +5°C° 0 mm 5 mps 759 mmHg 80%
07:00 +6°C° 0 mm 5 mps 759 mmHg 78%
08:00 +6°C° 0 mm 4 mps 760 mmHg 76%
09:00 +7°C° 0 mm 4 mps 761 mmHg 74%
10:00 +9°C° 0.1 mm 3 mps 761 mmHg 72%
11:00 +9°C° 0.1 mm 3 mps 761 mmHg 71%
12:00 +10°C° 0.1 mm 3 mps 761 mmHg 69%
13:00 +10°C° 0.1 mm 3 mps 761 mmHg 68%
14:00 +10°C° 0.1 mm 3 mps 761 mmHg 68%
15:00 +10°C° 0.1 mm 3 mps 761 mmHg 67%
16:00 +10°C° 0 mm 3 mps 761 mmHg 71%
17:00 +9°C° 0 mm 3 mps 762 mmHg 76%
18:00 +8°C° 0 mm 3 mps 762 mmHg 80%
19:00 +8°C° 0 mm 2 mps 762 mmHg 82%
20:00 +8°C° 0 mm 2 mps 763 mmHg 84%
21:00 +9°C° 0 mm 1 mps 763 mmHg 86%
22:00 +9°C° 0 mm 1 mps 763 mmHg 86%
23:00 +8°C° 0 mm 1 mps 763 mmHg 85%

26 January, Tuesday

Time Temperature Precipitation Wind Pressure Humidity
00:00 +8°C° 0 mm 1 mps 763 mmHg 85%
01:00 +8°C° 0 mm 1 mps 763 mmHg 84%
02:00 +8°C° 0 mm 1 mps 763 mmHg 83%
03:00 +7°C° 0 mm 1 mps 763 mmHg 83%
04:00 +7°C° 0 mm 1 mps 763 mmHg 81%
05:00 +6°C° 0 mm 2 mps 763 mmHg 80%
06:00 +6°C° 0 mm 2 mps 763 mmHg 79%
07:00 +7°C° 0 mm 2 mps 764 mmHg 76%
08:00 +7°C° 0 mm 2 mps 764 mmHg 74%
09:00 +8°C° 0 mm 2 mps 764 mmHg 71%
10:00 +10°C° 0 mm 1 mps 764 mmHg 67%
11:00 +11°C° 0 mm 1 mps 764 mmHg 63%
12:00 +12°C° 0 mm 1 mps 763 mmHg 59%
13:00 +13°C° 0 mm 1 mps 763 mmHg 61%
14:00 +13°C° 0 mm 2 mps 763 mmHg 62%
15:00 +13°C° 0 mm 2 mps 762 mmHg 64%
16:00 +12°C° 0 mm 2 mps 762 mmHg 69%
17:00 +10°C° 0 mm 2 mps 763 mmHg 73%
18:00 +10°C° 0 mm 2 mps 763 mmHg 78%
19:00 +9°C° 0 mm 3 mps 763 mmHg 78%
20:00 +9°C° 0 mm 3 mps 763 mmHg 79%
21:00 +8°C° 0 mm 3 mps 763 mmHg 79%
22:00 +8°C° 0 mm 3 mps 763 mmHg 80%
23:00 +8°C° 0 mm 3 mps 763 mmHg 82%

27 January, Wednesday

Time Temperature Precipitation Wind Pressure Humidity
00:00 +8°C° 0 mm 3 mps 764 mmHg 84%
01:00 +8°C° 0 mm 3 mps 764 mmHg 85%
02:00 +8°C° 0 mm 3 mps 764 mmHg 86%
03:00 +8°C° 0 mm 3 mps 764 mmHg 86%
04:00 +8°C° 0 mm 2 mps 764 mmHg 87%
05:00 +8°C° 0 mm 2 mps 764 mmHg 87%
06:00 +8°C° 0 mm 2 mps 764 mmHg 87%
07:00 +9°C° 0 mm 2 mps 764 mmHg 85%
08:00 +10°C° 0 mm 2 mps 765 mmHg 82%
09:00 +10°C° 0 mm 2 mps 765 mmHg 80%
10:00 +12°C° 0 mm 1 mps 765 mmHg 75%
11:00 +14°C° 0 mm 1 mps 765 mmHg 70%
12:00 +15°C° 0 mm 1 mps 765 mmHg 66%
13:00 +15°C° 0 mm 1 mps 764 mmHg 66%
14:00 +15°C° 0 mm 1 mps 764 mmHg 66%
15:00 +15°C° 0 mm 1 mps 764 mmHg 66%
16:00 +14°C° 0 mm 1 mps 764 mmHg 70%
17:00 +13°C° 0 mm 1 mps 764 mmHg 74%
18:00 +12°C° 0 mm 1 mps 764 mmHg 78%
19:00 +12°C° 0 mm 1 mps 764 mmHg 79%
20:00 +12°C° 0 mm 1 mps 765 mmHg 79%
21:00 +12°C° 0 mm 1 mps 765 mmHg 80%
22:00 +12°C° 0 mm 1 mps 765 mmHg 81%
23:00 +12°C° 0 mm 1 mps 765 mmHg 81%

28 January, Thursday

Time Temperature Precipitation Wind Pressure Humidity
00:00 +12°C° 0 mm 1 mps 765 mmHg 82%
01:00 +12°C° 0 mm 1 mps 765 mmHg 82%
02:00 +10°C° 0 mm 2 mps 764 mmHg 83%
03:00 +10°C° 0 mm 2 mps 764 mmHg 84%
04:00 +10°C° 0 mm 2 mps 764 mmHg 84%
05:00 +10°C° 0 mm 2 mps 764 mmHg 84%
06:00 +10°C° 0 mm 2 mps 764 mmHg 83%
07:00 +12°C° 0 mm 2 mps 765 mmHg 81%
08:00 +13°C° 0 mm 2 mps 765 mmHg 79%
09:00 +13°C° 0 mm 2 mps 765 mmHg 76%
10:00 +15°C° 0 mm 2 mps 765 mmHg 71%
11:00 +16°C° 0 mm 2 mps 765 mmHg 66%
12:00 +18°C° 0 mm 3 mps 765 mmHg 61%
13:00 +18°C° 0 mm 3 mps 765 mmHg 62%
14:00 +18°C° 0 mm 3 mps 764 mmHg 63%
15:00 +18°C° 0 mm 3 mps 764 mmHg 64%
16:00 +17°C° 0 mm 3 mps 764 mmHg 69%
17:00 +16°C° 0 mm 3 mps 764 mmHg 73%
18:00 +14°C° 0 mm 3 mps 764 mmHg 78%
Show more